sat.trackr.live / text

‹ back to catalog

SES-18

NORAD 55970 · 2023-038A

PAYLOAD ACTIVE UNKNOWN

§ Identity

Operator
Country
SES
Launch date
2023-03-17
Launch site
AFETR
Launch vehicle
Mass (kg)
RCS (m²)

Purposes: comms

External: N2YO · Heavens-Above · Gunter

§ Orbital elements

Epoch: 2026-05-24T22:07:14.656224Z

Period
1,436.09 min
Inclination
0.0167°
Eccentricity
0.0001105
Mean motion
1.00272158 rev/d
Perigee alt
35,781.8 km
Apogee alt
35,791.1 km
Semi-major
42,164.6 km
B*
0.0000e+0
RAAN
315.2048°
Arg perigee
23.1363°
Mean anomaly
132.9008°
Rev number
1,187

§ Raw data

SES-181 55970U 23038A   26144.92169741 -.00000104  00000+0  00000+0 0  99922 55970   0.0167 315.2048 0001105  23.1363 132.9008  1.00272158 11876

JSON: /api/v1/satellites/55970 · /tle

For live sub-satellite position, see the globe view (requires WebGL).

§ Visibility from observer

Set your observer location to see the next 7 days of passes ≥ 10°. The values pass through the URL so the page stays shareable.

No JS? Fill the form by hand. The geolocation button needs JavaScript.